Tracking 28565 objects as of 3-Mar-2024
HD Live streaming from Space Station
objects crossing your sky now

STARLINK-1927

Track STARLINK-1927 now!
10-day predictions
STARLINK-1927 is classified as:


NORAD ID: 47181
Int'l Code: 2020-088BM
Perigee: 450.5 km
Apogee: 457.3 km
Inclination: 53.1 °
Period: 93.5 minutes
Semi major axis: 6824 km
RCS: Unknown
Launch date: November 25, 2020
Source: United States (US)
Launch site: AIR FORCE EASTERN TEST RANGE (AFETR)
Your satellite tracking list
Your tracking list is empty




NASA's NSSDC Master Catalog

Two Line Element Set (TLE):
1 47181U 20088BM  24062.89484338  .00054235  00000-0  13489-2 0  9996
2 47181  53.0763 305.1837 0005021 203.5392 156.5382 15.39773842181690
Source of the keplerian elements: AFSPC